Temperature
6 5 6 6 6 8 7 7 7 7 7 7 6 7 7 8 8 7 8 9 10 11 11 11 11 11 11 11 11 11 11 11 11 10 10 10 10 10 10 10 10 9 9 9
5 5 6 7 6 7 7 7 7 7 7 7 6 6 7 7 7 8 8 9 10 10 10 10 11 10 10 10 10 11 10 10 10 10 10 10 10 10 10 9 9 9 9 9
6 7 7 7 6 6 6 6 7 7 7 6 6 6 7 7 7 8 8 9 9 10 10 10 10 10 10 10 10 10 10 10 10 10 10 10 9 9 9 9 9 9 8 8
5 6 6 6 6 6 6 7 7 7 6 5 6 6 6 6 6 6 7 8 9 9 10 10 10 10 10 10 10 10 10 10 10 9 9 9 9 8 8 8 8 8 8 8
5 6 6 6 6 6 6 6 6 6 5 5 5 5 5 5 6 6 6 7 8 9 9 9 9 10 10 10 10 9 9 9 9 9 9 8 8 8 8 8 8 8 8 8
5 6 6 6 6 6 5 5 4 4 4 4 4 4 5 5 6 6 6 7 8 8 8 9 9 9 9 9 9 9 9 9 9 8 8 8 8 8 7 7 7 7 7 7
5 5 6 6 5 5 5 5 5 4 3 4 4 4 5 5 5 5 5 6 7 8 8 8 8 8 9 9 9 9 8 8 8 8 8 8 7 7 7 7 6 6 6 7
4 5 5 5 6 5 5 5 5 5 4 4 4 4 5 5 5 6 6 6 7 7 7 8 8 8 8 8 8 8 8 8 8 8 8 7 7 7 6 6 6 6 6 6
3 4 5 5 5 5 4 4 5 3 3 3 4 4 4 5 5 4 5 5 6 7 7 7 8 8 8 8 8 8 8 8 8 7 7 7 7 6 6 6 6 6 6 6
3 3 4 5 5 5 5 4 3 3 4 4 4 4 5 5 5 5 4 4 6 7 7 7 7 7 7 7 7 7 7 7 7 7 6 6 6 6 6 6 6 6 6 6
3 3 3 4 4 4 3 3 3 2 3 3 4 5 5 4 5 4 4 5 6 6 7 7 7 7 7 7 7 7 7 7 7 6 6 6 6 6 6 5 5 5 5 5
2 1 2 3 3 3 3 3 2 3 2 1 2 4 5 4 4 4 4 5 6 6 6 6 6 6 6 6 6 6 6 6 6 6 6 6 6 5 5 5 5 5 5 5
2 1 2 3 2 2 2 2 2 2 1 1 2 4 4 3 3 4 4 5 5 5 6 6 6 6 6 6 6 6 6 6 6 5 5 5 5 5 5 5 5 4 4 4
3 1 2 3 2 1 1 2 1 1 2 1 1 3 4 4 3 3 4 5 5 5 5 5 5 5 5 5 5 5 5 5 5 5 5 5 5 4 4 4 4 4 4 4
2 1 1 1 2 1 2 2 1 1 2 2 2 2 4 3 3 3 4 4 4 4 4 5 5 5 5 5 4 4 4 4 4 4 4 4 4 4 4 4 4 3 3 3
0 0 0 0 1 1 1 2 2 2 2 2 2 2 3 3 3 3 3 3 3 4 4 4 4 4 4 4 4 4 4 4 4 4 4 4 4 3 3 3 3 3 3 3
-1 -0 0 0 1 1 1 2 2 2 2 2 2 3 3 3 2 3 3 3 3 3 3 3 3 3 3 3 3 3 3 3 3 3 3 3 3 3 3 3 3 3 2 2
-1 -1 -1 -1 -0 0 2 2 2 2 2 1 2 2 2 2 2 2 3 3 3 3 2 3 3 3 3 3 3 3 3 3 3 3 2 2 2 2 2 2 2 2 2 2
-1 -1 -1 -1 -1 -0 1 1 1 1 1 1 1 1 1 2 1 2 2 2 2 2 2 2 2 2 2 2 2 2 2 2 2 2 2 2 2 2 2 2 2 2 2 2
-1 -2 -2 -2 -1 -0 1 1 1 1 1 1 1 1 0 1 0 0 2 2 2 2 2 1 2 1 2 2 1 1 2 1 1 1 1 1 1 1 1 1 1 1 1 1
-2 -2 -2 -2 -2 -1 -0 0 1 1 0 1 1 1 1 -0 0 1 1 1 1 1 1 1 1 1 1 1 1 1 1 1 1 1 1 1 1 1 1 1 1 1 1 1
-2 -2 -2 -2 -2 -1 -0 -0 -0 0 1 1 1 1 1 1 1 1 1 1 1 1 1 0 0 0 0 0 0 0 0 0 0 0 1 1 1 1 0 0 0 0 0 0
-3 -2 -2 -2 -1 -1 0 0 1 1 1 1 1 1 1 0 0 0 0 0 0 0 -0 -0 -0 -0 -0 -0 -0 -0 -0 -0 -0 0 0 0 0 0 0 -0 -0 -0 -0 -0
-3 -3 -3 -3 -2 -1 -0 0 1 1 1 1 1 0 0 -0 -0 -0 -1 -1 -1 -1 -1 -1 -1 -1 -1 -1 -1 -1 -1 -1 -1 -0 -0 -0 -0 -0 -0 -1 -1 -1 -1 -1
-3 -3 -3 -3 -2 -2 -1 -0 0 0 0 0 -0 -0 -0 -1 -1 -1 -1 -1 -1 -1 -1 -1 -1 -1 -1 -1 -1 -1 -1 -1 -1 -1 -1 -1 -1 -1 -1 -1 -1 -1 -1 -2
-4 -3 -3 -2 -2 -2 -2 -1 -1 -0 -0 -1 -1 -1 -1 -1 -1 -2 -2 -2 -2 -2 -2 -2 -2 -2 -2 -2 -2 -2 -2 -2 -2 -1 -1 -1 -1 -2 -2 -2 -2 -2 -2 -2
Wind_Speed
3 3 8 11 11 4 4 4 6 6 3 3 9 14 15 10 8 10 10 9 9 9 7 5 5 5 4 4 4 4 4 4 3 2 2 2 3 3 3 4 5 5 5 5
2 8 9 5 6 5 4 5 6 6 2 3 8 14 13 10 9 10 10 9 9 7 5 4 4 4 5 5 5 5 5 5 4 3 3 3 3 3 4 4 4 6 6 6
10 5 4 6 5 6 8 8 6 6 5 3 6 9 7 6 4 4 6 6 6 7 7 5 4 5 5 6 6 6 6 6 5 4 2 1 1 2 3 4 4 5 6 6
8 5 3 5 7 8 8 7 6 4 3 5 1 6 7 5 6 5 5 4 5 5 5 5 5 5 6 6 6 5 5 5 4 4 3 4 3 5 5 5 5 5 5 6
6 5 6 7 7 9 5 1 3 3 4 4 3 5 9 4 5 7 6 5 4 4 5 6 6 6 6 4 4 4 5 5 4 4 5 4 5 5 4 4 5 6 5 6
5 4 5 6 3 7 4 3 3 2 2 5 6 7 8 5 6 5 4 4 4 3 4 5 4 4 3 3 3 3 4 5 4 4 4 5 5 5 5 6 6 6 5 5
4 4 3 4 3 3 4 4 1 2 2 7 4 5 9 7 5 4 5 5 4 3 2 3 3 3 3 4 4 3 4 4 4 4 4 5 5 6 6 7 6 6 6 5
5 6 7 5 6 7 7 7 6 6 5 4 3 8 8 5 4 3 4 4 2 2 2 3 4 4 4 5 4 4 4 4 3 3 4 4 4 4 5 6 6 7 6 7
6 5 1 3 3 8 6 6 4 4 1 3 6 7 8 2 3 3 3 2 2 2 3 4 4 4 4 4 4 4 4 3 3 3 3 4 4 4 5 6 6 6 6 7
4 4 2 1 3 1 4 7 4 5 4 5 6 5 5 4 3 3 3 3 4 3 4 4 4 4 4 4 3 3 3 3 3 3 3 4 4 5 5 5 6 7 7 7
2 3 2 1 6 8 5 4 4 4 4 5 4 6 4 5 3 2 3 4 4 4 5 4 4 4 3 2 2 3 3 3 3 3 3 4 5 5 5 5 7 7 7 7
3 3 3 5 2 2 5 6 7 6 5 4 4 7 4 3 2 2 4 4 4 4 5 4 4 4 3 3 3 3 3 3 4 4 4 4 5 5 5 6 7 7 7 7
4 3 1 2 1 0 2 4 5 4 4 5 5 7 3 2 3 3 4 4 4 4 4 4 3 4 4 4 3 3 4 4 4 4 4 4 5 5 6 7 7 7 6 6
2 3 5 7 4 4 4 5 5 5 5 6 9 10 8 6 5 5 5 5 4 4 4 4 4 4 4 4 4 4 5 4 4 4 4 4 5 6 6 7 7 6 6 6
3 3 4 5 4 3 6 8 8 10 9 9 9 10 12 8 6 6 5 4 4 4 4 4 4 4 4 5 5 4 5 5 4 4 5 5 6 6 6 6 6 6 6 6
2 3 2 4 4 5 8 11 11 12 10 11 11 12 9 5 3 4 4 4 4 5 5 5 4 4 4 5 5 5 5 5 5 5 5 6 5 6 6 5 6 6 5 5
3 4 2 4 2 2 8 10 11 7 7 8 11 11 5 3 4 5 5 4 4 5 5 5 5 5 5 5 5 5 6 5 5 5 5 5 5 6 6 6 5 6 6 5
4 4 3 2 1 7 6 2 5 7 7 7 7 5 3 4 4 4 3 3 3 4 4 5 5 5 5 4 5 5 5 4 4 5 5 5 5 6 6 5 5 6 5 5
6 5 3 3 4 7 6 2 2 4 4 4 5 4 3 1 2 4 3 2 3 4 4 4 4 4 4 5 5 5 5 5 5 5 6 6 6 6 6 6 6 5 4 5
3 4 4 3 4 6 5 3 2 2 4 4 3 4 3 0 1 4 3 2 3 4 3 4 4 4 4 5 5 5 5 5 6 7 7 6 6 6 6 6 6 5 4 4
3 3 4 5 5 6 6 4 1 3 4 3 2 3 2 2 3 3 4 3 3 3 3 3 4 4 4 5 4 5 6 6 7 7 6 6 6 6 5 5 4 4 4 4
6 5 5 4 4 7 3 2 3 5 3 2 1 2 1 2 2 3 4 4 4 4 4 4 4 5 5 5 4 5 7 7 6 6 6 6 6 5 5 4 4 4 3 3
5 6 5 6 6 4 3 4 4 2 2 2 2 2 1 2 3 4 4 4 4 4 4 4 4 6 6 5 4 6 8 7 6 6 6 6 6 5 4 4 4 4 3 2
3 2 3 4 6 5 5 5 3 2 3 2 1 1 1 2 3 4 4 4 4 5 5 5 5 6 7 7 6 6 7 6 5 6 6 5 5 5 4 4 3 3 3 3
5 3 3 5 6 5 4 3 3 2 1 1 2 1 1 1 3 4 4 5 4 5 5 4 5 6 7 7 7 7 7 6 5 6 5 5 4 4 4 4 3 3 3 3
4 5 5 6 6 4 4 3 1 1 2 2 2 3 2 1 3 4 4 4 4 5 5 5 5 6 7 7 7 7 6 5 5 5 5 4 4 4 3 3 4 6 5 7
Wind_Direction
149 159 209 209 204 205 183 204 246 259 270 246 256 269 275 272 255 253 251 242 240 244 251 237 218 209 200 200 204 209 215 224 192 187 196 217 243 248 247 239 238 239 241 239
139 234 229 195 194 219 223 240 257 280 287 261 281 277 274 262 246 240 242 239 236 240 245 229 216 206 204 207 211 209 220 225 207 202 202 207 227 244 245 245 246 240 240 238
200 224 191 178 189 209 232 230 236 257 321 314 312 297 279 279 261 254 240 235 227 218 220 217 212 216 210 213 214 216 224 226 217 205 200 237 270 280 266 260 254 245 241 239
229 236 188 193 208 193 242 224 214 234 284 286 350 293 284 282 299 281 265 246 230 225 215 213 213 218 218 222 221 219 228 226 218 200 200 215 237 251 257 259 260 263 249 245
230 206 195 213 213 185 208 167 190 220 216 278 231 242 280 297 278 272 266 255 248 232 219 217 218 221 231 225 223 226 231 229 219 213 207 217 241 252 265 268 270 270 261 250
241 230 205 204 191 177 147 78 62 63 106 258 215 203 273 246 237 264 273 270 265 250 238 233 232 229 245 244 229 229 226 229 223 221 217 217 235 252 266 270 272 274 271 260
250 241 210 159 125 135 137 120 60 325 268 247 191 210 251 251 243 237 264 274 274 258 243 248 246 244 251 248 237 231 224 237 235 228 227 226 233 238 246 257 260 267 270 267
206 246 210 187 178 173 187 169 178 205 227 270 213 233 255 260 271 274 277 280 286 281 275 264 258 255 256 252 244 237 236 245 247 240 245 244 239 244 252 256 259 259 261 262
194 240 240 190 168 150 161 199 168 137 152 267 256 273 295 271 306 320 321 323 300 290 281 278 279 268 256 250 245 237 236 254 262 256 258 263 255 253 260 266 266 265 263 266
172 225 255 185 94 88 156 148 132 158 183 243 272 263 252 267 277 317 327 309 305 305 303 298 295 287 270 251 245 254 245 247 260 262 263 281 273 267 267 272 273 272 269 267
162 189 269 185 193 181 144 156 156 156 176 186 254 266 231 222 230 264 293 304 303 299 300 299 301 298 299 303 280 273 267 261 274 277 278 282 283 282 282 277 273 273 275 271
174 158 233 241 245 198 181 178 161 175 214 196 211 267 284 219 240 272 301 310 313 309 307 302 302 316 326 314 307 298 288 277 275 277 279 279 282 289 291 285 283 282 281 276
150 152 216 323 344 137 196 187 181 155 149 180 203 260 314 1 330 315 307 309 314 313 312 313 314 317 319 316 313 310 298 288 285 287 283 285 291 295 295 292 291 289 286 285
159 178 202 214 226 197 225 221 193 173 200 219 227 252 282 300 305 307 306 303 304 306 310 315 314 317 319 317 316 311 308 305 303 300 294 288 289 289 292 292 294 292 287 284
145 210 234 256 259 226 240 240 219 214 215 223 243 245 260 269 271 281 292 302 311 314 315 310 310 314 321 320 318 315 313 314 312 307 303 295 294 293 294 295 296 295 293 293
146 193 223 267 254 245 261 250 235 232 231 238 253 264 262 262 269 284 291 294 294 297 301 305 308 310 313 313 313 315 314 314 315 302 295 297 305 310 303 298 302 304 303 298
174 168 191 254 264 298 260 234 216 212 212 210 235 250 255 264 264 268 274 275 276 286 298 306 305 300 303 305 307 308 308 315 314 306 305 311 315 314 307 305 312 308 303 300
185 180 194 222 177 234 247 257 209 216 234 224 236 256 255 245 267 289 286 275 286 297 305 311 311 310 313 313 316 316 319 319 315 313 313 316 315 310 309 313 309 302 297 298
195 184 185 190 224 268 288 280 198 205 258 247 230 251 276 291 335 315 303 274 283 295 300 303 306 308 317 322 325 329 326 325 322 316 314 310 305 302 305 306 302 301 299 295
167 172 178 185 213 241 261 283 274 148 271 275 207 218 226 149 299 283 304 314 312 316 316 319 326 331 333 329 332 333 325 322 314 311 310 308 304 301 302 303 305 306 301 294
159 180 203 213 233 261 267 286 82 175 247 278 233 236 220 221 235 266 311 325 329 324 325 330 334 333 324 321 330 326 317 309 306 308 308 307 307 304 299 300 302 304 304 307
183 182 194 185 218 253 249 142 179 226 247 241 243 257 235 250 285 306 323 327 335 336 333 334 334 329 323 323 329 320 308 305 309 310 309 308 307 307 309 303 305 306 306 310
204 198 188 196 218 247 236 225 252 232 243 257 243 265 248 270 293 311 316 320 327 328 324 327 327 325 324 325 323 310 307 311 312 312 310 311 314 316 315 309 308 311 307 300
256 211 190 244 267 271 278 281 288 264 253 273 270 287 291 280 296 309 315 316 320 320 321 326 329 326 321 323 321 308 309 313 311 310 311 313 316 320 326 324 316 312 310 305
235 193 211 254 276 295 303 293 282 289 275 333 344 338 310 295 298 299 307 308 308 311 314 318 316 311 311 317 318 317 317 319 315 311 310 312 313 313 322 326 321 308 300 291
214 196 206 243 251 232 261 286 304 319 314 319 335 331 329 297 290 301 303 305 305 308 313 315 313 311 311 315 316 317 317 316 311 310 310 310 314 319 323 329 336 338 327 326
Height
1457 1461 1460 1458 1459 1459 1461 1463 1463 1460 1458 1459 1457 1451 1444 1442 1442 1440 1439 1439 1440 1441 1443 1445 1447 1449 1450 1452 1454 1455 1456 1457 1458 1459 1459 1459 1459 1460 1460 1460 1460 1460 1460 1460
1459 1458 1453 1454 1457 1459 1461 1462 1461 1459 1457 1457 1456 1449 1441 1437 1436 1434 1434 1434 1435 1436 1438 1440 1442 1444 1446 1448 1450 1451 1452 1453 1454 1455 1455 1455 1455 1455 1455 1455 1455 1455 1454 1454
1453 1451 1449 1453 1456 1458 1459 1460 1459 1459 1458 1457 1457 1447 1439 1433 1431 1430 1430 1430 1430 1432 1434 1435 1437 1439 1441 1443 1445 1447 1448 1449 1449 1450 1451 1451 1451 1450 1450 1450 1449 1449 1449 1449
1451 1448 1449 1451 1453 1455 1456 1454 1456 1457 1461 1462 1460 1458 1440 1434 1431 1428 1427 1426 1426 1428 1430 1432 1434 1435 1437 1439 1441 1442 1444 1444 1445 1446 1446 1446 1445 1444 1444 1444 1444 1443 1443 1443
1447 1446 1447 1448 1448 1451 1453 1453 1456 1457 1461 1464 1462 1462 1443 1436 1432 1427 1425 1424 1424 1425 1427 1428 1430 1432 1434 1435 1437 1438 1439 1440 1440 1441 1441 1441 1440 1439 1439 1439 1438 1437 1437 1437
1445 1443 1443 1443 1445 1447 1451 1455 1459 1463 1465 1465 1458 1461 1444 1436 1429 1426 1424 1423 1422 1423 1424 1425 1427 1429 1430 1432 1433 1434 1434 1435 1436 1436 1436 1436 1435 1434 1433 1433 1432 1431 1431 1430
1444 1442 1440 1441 1445 1448 1450 1457 1464 1465 1470 1462 1454 1455 1440 1428 1425 1424 1423 1421 1421 1421 1421 1422 1423 1425 1426 1428 1429 1430 1430 1430 1431 1431 1431 1431 1430 1429 1428 1427 1426 1425 1424 1424
1446 1443 1438 1438 1440 1444 1448 1450 1457 1460 1462 1458 1454 1451 1434 1424 1422 1421 1421 1420 1420 1419 1419 1420 1421 1421 1422 1424 1425 1425 1426 1426 1426 1427 1427 1426 1426 1425 1423 1422 1421 1420 1419 1418
1444 1441 1436 1435 1436 1439 1446 1449 1449 1459 1463 1460 1450 1443 1431 1421 1421 1420 1420 1419 1418 1419 1419 1420 1420 1420 1420 1421 1421 1422 1422 1422 1422 1422 1422 1421 1421 1419 1418 1417 1416 1414 1413 1412
1439 1442 1437 1436 1436 1438 1440 1445 1453 1456 1457 1452 1445 1442 1433 1423 1422 1421 1420 1419 1418 1418 1418 1418 1417 1417 1417 1417 1418 1419 1419 1418 1418 1418 1418 1417 1416 1414 1413 1411 1410 1409 1407 1406
1438 1442 1440 1438 1437 1438 1442 1445 1447 1453 1455 1455 1449 1437 1423 1422 1420 1421 1420 1419 1418 1418 1417 1417 1416 1415 1414 1415 1415 1416 1415 1415 1415 1414 1413 1412 1411 1410 1408 1407 1405 1403 1402 1400
1438 1442 1444 1439 1436 1435 1436 1439 1444 1449 1454 1457 1456 1439 1419 1419 1419 1419 1419 1419 1418 1418 1417 1416 1415 1414 1413 1413 1413 1413 1412 1412 1411 1410 1409 1408 1406 1405 1403 1402 1400 1398 1396 1394
1437 1441 1443 1439 1442 1440 1438 1439 1441 1444 1450 1456 1452 1435 1420 1419 1418 1419 1419 1418 1417 1417 1416 1415 1414 1413 1412 1411 1410 1410 1409 1409 1407 1406 1405 1403 1402 1400 1398 1396 1394 1392 1390 1388
1432 1437 1438 1437 1435 1438 1439 1438 1439 1442 1445 1447 1443 1430 1422 1420 1419 1418 1418 1417 1416 1416 1415 1413 1412 1411 1410 1409 1408 1407 1406 1405 1404 1403 1401 1399 1397 1395 1393 1391 1389 1387 1385 1383
1432 1436 1437 1435 1433 1434 1434 1433 1435 1437 1435 1436 1429 1427 1420 1418 1418 1417 1416 1416 1415 1414 1413 1412 1411 1410 1408 1407 1405 1405 1403 1402 1401 1399 1397 1395 1393 1391 1389 1387 1384 1382 1380 1378
1432 1435 1436 1435 1431 1432 1430 1427 1427 1427 1428 1428 1426 1422 1416 1416 1416 1416 1415 1414 1413 1413 1412 1410 1409 1407 1406 1405 1403 1402 1400 1399 1397 1395 1393 1391 1389 1386 1384 1382 1379 1377 1375 1373
1432 1434 1436 1434 1431 1429 1428 1420 1419 1420 1419 1421 1420 1416 1414 1415 1414 1414 1413 1412 1412 1411 1410 1408 1407 1405 1404 1402 1401 1399 1397 1396 1394 1392 1390 1387 1385 1383 1380 1378 1375 1373 1371 1369
1430 1433 1434 1435 1434 1433 1418 1413 1412 1414 1414 1415 1413 1412 1412 1413 1412 1412 1411 1411 1410 1409 1407 1406 1404 1403 1401 1400 1398 1396 1394 1392 1390 1388 1386 1384 1382 1379 1377 1374 1371 1369 1367 1365
1425 1429 1433 1435 1434 1427 1417 1413 1413 1414 1413 1412 1411 1411 1411 1411 1411 1410 1410 1409 1408 1407 1406 1404 1403 1401 1399 1397 1395 1393 1391 1389 1387 1385 1383 1381 1379 1376 1373 1370 1368 1366 1363 1362
1424 1427 1432 1434 1432 1427 1416 1411 1410 1412 1413 1410 1409 1409 1410 1410 1413 1410 1408 1407 1406 1405 1403 1402 1400 1399 1397 1395 1393 1391 1388 1386 1384 1382 1380 1378 1376 1373 1370 1368 1365 1363 1361 1359
1426 1427 1429 1430 1430 1423 1414 1410 1410 1416 1413 1409 1407 1407 1408 1409 1409 1408 1406 1405 1404 1403 1401 1400 1398 1397 1395 1393 1391 1388 1386 1384 1382 1380 1378 1375 1373 1371 1368 1366 1363 1361 1358 1356
1423 1426 1428 1428 1428 1423 1410 1410 1412 1410 1407 1407 1406 1406 1407 1406 1406 1405 1404 1403 1402 1401 1399 1398 1396 1394 1393 1391 1389 1386 1384 1382 1380 1377 1375 1373 1370 1368 1366 1363 1361 1359 1356 1353
1419 1418 1418 1419 1417 1410 1407 1407 1406 1406 1405 1405 1405 1405 1405 1405 1404 1404 1403 1402 1401 1399 1398 1396 1394 1392 1390 1389 1386 1383 1381 1379 1377 1374 1372 1370 1367 1365 1363 1361 1358 1356 1354 1351
1415 1413 1414 1414 1410 1407 1406 1405 1404 1404 1404 1404 1404 1404 1404 1403 1403 1402 1401 1400 1398 1397 1395 1394 1392 1389 1387 1386 1384 1381 1379 1376 1374 1371 1369 1367 1365 1362 1360 1358 1356 1354 1351 1349
1411 1411 1412 1411 1407 1405 1403 1403 1403 1403 1403 1403 1403 1403 1402 1402 1401 1400 1399 1398 1396 1395 1393 1392 1390 1387 1385 1383 1380 1378 1376 1374 1371 1369 1367 1365 1362 1360 1358 1356 1354 1352 1350 1349
1407 1408 1409 1407 1404 1404 1403 1402 1401 1401 1401 1401 1401 1400 1400 1400 1399 1398 1397 1395 1394 1392 1390 1388 1387 1384 1382 1380 1377 1375 1373 1371 1368 1366 1364 1362 1360 1358 1356 1353 1351 1350 1348 1347